Year,Month,Day,Hour,Minute,Value (Times are PST for temperature in C)
2019,09,22,11,16,14.30
2019,09,22,11,17,14.30
2019,09,22,11,18,14.30
2019,09,22,11,19,14.30
2019,09,22,11,20,14.30
2019,09,22,11,21,14.30
2019,09,22,11,22,14.40
2019,09,22,11,23,14.40
2019,09,22,11,24,14.40
2019,09,22,11,25,14.30
2019,09,22,11,26,14.30
2019,09,22,11,27,14.30
2019,09,22,11,28,14.30
2019,09,22,11,29,14.20
2019,09,22,11,30,14.20
2019,09,22,11,31,14.20
2019,09,22,11,32,14.20
2019,09,22,11,33,14.20
2019,09,22,11,34,14.30
2019,09,22,11,35,14.40
2019,09,22,11,36,14.40
2019,09,22,11,37,14.40
2019,09,22,11,38,14.40
2019,09,22,11,39,14.30
2019,09,22,11,40,14.30
2019,09,22,11,41,14.30
2019,09,22,11,42,14.30
2019,09,22,11,43,14.30
2019,09,22,11,44,14.40
2019,09,22,11,45,14.40
2019,09,22,11,46,14.40
2019,09,22,11,47,14.30
2019,09,22,11,48,14.40
2019,09,22,11,49,14.40
2019,09,22,11,50,14.40
2019,09,22,11,51,14.40
2019,09,22,11,52,14.50
2019,09,22,11,53,14.50
2019,09,22,11,54,14.60
2019,09,22,11,55,14.60
2019,09,22,11,56,14.60
2019,09,22,11,57,14.60
2019,09,22,11,58,14.60
2019,09,22,11,59,14.60
2019,09,22,12,00,14.50
2019,09,22,12,01,14.50
2019,09,22,12,02,14.50
2019,09,22,12,03,14.50
2019,09,22,12,04,14.60
2019,09,22,12,05,14.60
2019,09,22,12,06,14.60
2019,09,22,12,07,14.50
2019,09,22,12,08,14.50
2019,09,22,12,09,14.50
2019,09,22,12,10,14.50
2019,09,22,12,11,14.60
2019,09,22,12,12,14.60
2019,09,22,12,13,14.60
2019,09,22,12,14,14.60
2019,09,22,12,15,14.50
2019,09,22,12,16,14.50
2019,09,22,12,17,14.50
2019,09,22,12,18,14.50
2019,09,22,12,19,14.60
2019,09,22,12,20,14.60
2019,09,22,12,21,14.70
2019,09,22,12,22,14.90
2019,09,22,12,23,14.90
2019,09,22,12,24,15.00
2019,09,22,12,25,15.00
2019,09,22,12,26,15.00
2019,09,22,12,27,15.00
2019,09,22,12,28,15.10
2019,09,22,12,29,15.10
2019,09,22,12,30,15.10
2019,09,22,12,31,15.20
2019,09,22,12,32,15.20
2019,09,22,12,33,15.20
2019,09,22,12,34,15.20
2019,09,22,12,35,15.20
2019,09,22,12,36,15.20
2019,09,22,12,37,15.20
2019,09,22,12,38,15.20
2019,09,22,12,39,15.30
2019,09,22,12,40,15.30
2019,09,22,12,41,15.30
2019,09,22,12,42,15.30
2019,09,22,12,43,15.30
2019,09,22,12,44,15.30
2019,09,22,12,45,15.30
2019,09,22,12,46,15.40
2019,09,22,12,47,15.50
2019,09,22,12,48,15.70
2019,09,22,12,49,15.80
2019,09,22,12,50,15.80
2019,09,22,12,51,15.80
2019,09,22,12,52,15.80
2019,09,22,12,53,15.90
2019,09,22,12,54,16.00
2019,09,22,12,55,16.10
2019,09,22,12,56,16.10
2019,09,22,12,57,16.00
2019,09,22,12,58,16.00
2019,09,22,12,59,16.10
2019,09,22,13,00,16.10
2019,09,22,13,01,16.10
2019,09,22,13,02,16.10
2019,09,22,13,03,16.10
2019,09,22,13,04,16.20
2019,09,22,13,05,16.20
2019,09,22,13,06,16.20
2019,09,22,13,07,16.30
2019,09,22,13,08,16.30
2019,09,22,13,09,16.30
2019,09,22,13,10,16.30
2019,09,22,13,11,16.40
2019,09,22,13,12,16.40
2019,09,22,13,13,16.30
2019,09,22,13,14,16.20
2019,09,22,13,15,16.20
2019,09,22,13,16,16.20
2019,09,22,13,17,16.20
2019,09,22,13,18,16.30
2019,09,22,13,19,16.40
2019,09,22,13,20,16.40
2019,09,22,13,21,16.40
2019,09,22,13,22,16.40
2019,09,22,13,23,16.40
2019,09,22,13,24,16.40
2019,09,22,13,25,16.40
2019,09,22,13,26,16.40
2019,09,22,13,27,16.50
2019,09,22,13,28,16.60
2019,09,22,13,29,16.50
2019,09,22,13,30,16.40
2019,09,22,13,31,16.40
2019,09,22,13,32,16.50
2019,09,22,13,33,16.50
2019,09,22,13,34,16.40
2019,09,22,13,35,16.40
2019,09,22,13,36,16.40
2019,09,22,13,37,16.30
2019,09,22,13,38,16.30
2019,09,22,13,39,16.30
2019,09,22,13,40,16.30
2019,09,22,13,41,16.30
2019,09,22,13,42,16.40
2019,09,22,13,43,16.40
2019,09,22,13,44,16.40
2019,09,22,13,45,16.40
2019,09,22,13,46,16.50
2019,09,22,13,47,16.60
2019,09,22,13,48,16.60
2019,09,22,13,49,16.60
2019,09,22,13,50,16.60
2019,09,22,13,51,16.60
2019,09,22,13,52,16.70
2019,09,22,13,53,16.70
2019,09,22,13,54,16.70
2019,09,22,13,55,16.70
2019,09,22,13,56,16.80
2019,09,22,13,57,16.80
2019,09,22,13,58,16.80
2019,09,22,13,59,16.80
2019,09,22,14,00,16.80
2019,09,22,14,01,16.80
2019,09,22,14,02,16.80
2019,09,22,14,03,16.80
2019,09,22,14,04,16.90
2019,09,22,14,05,16.90
2019,09,22,14,06,16.90
2019,09,22,14,07,16.90
2019,09,22,14,08,16.90
2019,09,22,14,09,16.80
2019,09,22,14,10,16.70
2019,09,22,14,11,16.60
2019,09,22,14,12,16.40
2019,09,22,14,13,16.40
2019,09,22,14,14,16.30
2019,09,22,14,15,16.30
2019,09,22,14,16,16.30
2019,09,22,14,17,16.20
2019,09,22,14,18,16.20
2019,09,22,14,19,16.10
2019,09,22,14,20,16.10
2019,09,22,14,21,16.10
2019,09,22,14,22,16.10
2019,09,22,14,23,16.00
2019,09,22,14,24,15.90
2019,09,22,14,25,16.10
2019,09,22,14,26,16.10
2019,09,22,14,27,16.10
2019,09,22,14,28,16.10
2019,09,22,14,29,16.10
2019,09,22,14,30,16.10
2019,09,22,14,31,16.10
2019,09,22,14,32,16.10
2019,09,22,14,33,16.10
2019,09,22,14,34,16.10
2019,09,22,14,35,16.10
2019,09,22,14,36,16.10
2019,09,22,14,37,16.10
2019,09,22,14,38,16.10
2019,09,22,14,39,16.10
2019,09,22,14,40,16.10
2019,09,22,14,41,16.10
2019,09,22,14,42,16.10
2019,09,22,14,43,16.10
2019,09,22,14,44,16.10
2019,09,22,14,45,16.10
2019,09,22,14,46,16.10
2019,09,22,14,47,16.10
2019,09,22,14,48,16.10
2019,09,22,14,49,16.10
2019,09,22,14,50,16.10
2019,09,22,14,51,16.10
2019,09,22,14,52,16.10
2019,09,22,14,53,16.10
2019,09,22,14,54,16.10
2019,09,22,14,55,16.10
2019,09,22,14,56,16.10
2019,09,22,14,57,16.10
2019,09,22,14,58,16.10
2019,09,22,14,59,16.20
2019,09,22,15,00,16.20
2019,09,22,15,01,16.20
2019,09,22,15,02,16.30
2019,09,22,15,03,16.30
2019,09,22,15,04,16.30
2019,09,22,15,05,16.30
2019,09,22,15,06,16.40
2019,09,22,15,07,16.40
2019,09,22,15,08,16.40
2019,09,22,15,09,16.40
2019,09,22,15,10,16.40
2019,09,22,15,11,16.50
2019,09,22,15,12,16.60
2019,09,22,15,13,16.60
2019,09,22,15,14,16.70
2019,09,22,15,15,16.70
2019,09,22,15,16,16.70
2019,09,22,15,17,16.80
2019,09,22,15,18,16.80
2019,09,22,15,19,16.80
2019,09,22,15,20,16.90
2019,09,22,15,21,16.90
2019,09,22,15,22,16.90
2019,09,22,15,23,16.90
2019,09,22,15,24,16.90
2019,09,22,15,25,16.90
2019,09,22,15,26,17.00
2019,09,22,15,27,17.00
2019,09,22,15,28,17.10
2019,09,22,15,29,17.10
2019,09,22,15,30,17.10
2019,09,22,15,31,17.10
2019,09,22,15,32,17.10
2019,09,22,15,33,17.10
2019,09,22,15,34,17.10
2019,09,22,15,35,17.10
2019,09,22,15,36,17.10
2019,09,22,15,37,17.10
2019,09,22,15,38,17.10
2019,09,22,15,39,17.10
2019,09,22,15,40,17.10
2019,09,22,15,41,17.10
2019,09,22,15,42,17.10
2019,09,22,15,43,17.10
2019,09,22,15,44,17.10
2019,09,22,15,45,17.10
2019,09,22,15,46,17.10
2019,09,22,15,47,17.10
2019,09,22,15,48,17.10
2019,09,22,15,49,17.10
2019,09,22,15,50,17.10
2019,09,22,15,51,17.10
2019,09,22,15,52,17.20
2019,09,22,15,53,17.20
2019,09,22,15,54,17.20
2019,09,22,15,55,17.30
2019,09,22,15,56,17.30
2019,09,22,15,57,17.40
2019,09,22,15,58,17.50
2019,09,22,15,59,17.50
2019,09,22,16,00,17.60
2019,09,22,16,01,17.70
2019,09,22,16,02,17.80
2019,09,22,16,03,17.90
2019,09,22,16,04,17.90
2019,09,22,16,05,17.90
2019,09,22,16,06,18.10
2019,09,22,16,07,18.10
2019,09,22,16,08,18.10
2019,09,22,16,09,18.10
2019,09,22,16,10,18.00
2019,09,22,16,11,17.90
2019,09,22,16,12,17.90
2019,09,22,16,13,17.90
2019,09,22,16,14,17.90
2019,09,22,16,15,17.90
2019,09,22,16,16,17.90
2019,09,22,16,17,17.90
2019,09,22,16,18,17.90
2019,09,22,16,19,17.90
2019,09,22,16,20,17.90
2019,09,22,16,21,17.90
2019,09,22,16,22,17.90
2019,09,22,16,23,18.00
2019,09,22,16,24,18.10
2019,09,22,16,25,18.10
2019,09,22,16,26,18.00
2019,09,22,16,27,17.90
2019,09,22,16,28,17.90
2019,09,22,16,29,17.90
2019,09,22,16,30,17.90
2019,09,22,16,31,17.90
2019,09,22,16,32,17.90
2019,09,22,16,33,17.90
2019,09,22,16,34,17.90
2019,09,22,16,35,17.90
2019,09,22,16,36,17.90
2019,09,22,16,37,17.90
2019,09,22,16,38,17.90
2019,09,22,16,39,17.90
2019,09,22,16,40,18.00
2019,09,22,16,41,18.10
2019,09,22,16,42,18.10
2019,09,22,16,43,18.10
2019,09,22,16,44,18.20
2019,09,22,16,45,18.20
2019,09,22,16,46,18.20
2019,09,22,16,47,18.10
2019,09,22,16,48,18.10
2019,09,22,16,49,18.00
2019,09,22,16,50,17.90
2019,09,22,16,51,17.90
2019,09,22,16,52,17.90
2019,09,22,16,53,17.90
2019,09,22,16,54,17.90
2019,09,22,16,55,17.90
2019,09,22,16,56,17.90
2019,09,22,16,57,17.90
2019,09,22,16,58,17.90
2019,09,22,16,59,17.90
2019,09,22,17,00,17.90
2019,09,22,17,01,18.00
2019,09,22,17,02,18.10
2019,09,22,17,03,18.10
2019,09,22,17,04,18.10
2019,09,22,17,05,18.10
2019,09,22,17,06,18.10
2019,09,22,17,07,18.10
2019,09,22,17,08,18.10
2019,09,22,17,09,18.10
2019,09,22,17,10,18.10
2019,09,22,17,11,18.00
2019,09,22,17,12,17.90
2019,09,22,17,13,17.90
2019,09,22,17,14,17.90
2019,09,22,17,15,17.90
2019,09,22,17,16,17.90
2019,09,22,17,17,17.90
2019,09,22,17,18,17.90
2019,09,22,17,19,17.80
2019,09,22,17,20,17.80
2019,09,22,17,21,17.80
2019,09,22,17,22,17.80
2019,09,22,17,23,17.80
2019,09,22,17,24,17.70
2019,09,22,17,25,17.70
2019,09,22,17,26,17.70
2019,09,22,17,27,17.70
2019,09,22,17,28,17.70
2019,09,22,17,29,17.60
2019,09,22,17,30,17.60
2019,09,22,17,31,17.60
2019,09,22,17,32,17.50
2019,09,22,17,33,17.50
2019,09,22,17,34,17.50
2019,09,22,17,35,17.50
2019,09,22,17,36,17.50
2019,09,22,17,37,17.50
2019,09,22,17,38,17.40
2019,09,22,17,39,17.40
2019,09,22,17,40,17.40
2019,09,22,17,41,17.30
2019,09,22,17,42,17.30
2019,09,22,17,43,17.30
2019,09,22,17,44,17.20
2019,09,22,17,45,17.10
2019,09,22,17,46,17.10
2019,09,22,17,47,17.00
2019,09,22,17,48,17.00
2019,09,22,17,49,16.90
2019,09,22,17,50,16.90
2019,09,22,17,51,16.90
2019,09,22,17,52,16.90
2019,09,22,17,53,16.90
2019,09,22,17,54,16.80
2019,09,22,17,55,16.80
2019,09,22,17,56,16.80
2019,09,22,17,57,16.80
2019,09,22,17,58,16.70
2019,09,22,17,59,16.70
2019,09,22,18,00,16.70
2019,09,22,18,01,16.70
2019,09,22,18,02,16.70
2019,09,22,18,03,16.70
2019,09,22,18,04,16.70
2019,09,22,18,05,16.70
2019,09,22,18,06,16.70
2019,09,22,18,07,16.70
2019,09,22,18,08,16.70
2019,09,22,18,09,16.70
2019,09,22,18,10,16.70
2019,09,22,18,11,16.70
2019,09,22,18,12,16.70
2019,09,22,18,13,16.70
2019,09,22,18,14,16.70
2019,09,22,18,15,16.70
2019,09,22,18,16,16.60
2019,09,22,18,17,16.60
2019,09,22,18,18,16.60
2019,09,22,18,19,16.60
2019,09,22,18,20,16.60
2019,09,22,18,21,16.60
2019,09,22,18,22,16.60
2019,09,22,18,23,16.60
2019,09,22,18,24,16.60
2019,09,22,18,25,16.60
2019,09,22,18,26,16.60
2019,09,22,18,27,16.60
